www.pogodaiklimat.ru

Погода и климат >> Архив погоды >> Болгария >> Sandanski


ПОГОДА в Sandanski

  • Прогноз погоды в Sandanski
  • Монитор погоды в Sandanski
  • Климат города

АРХИВ ПОГОДЫ в Sandanski

Время (UTC), дата Ветер
(напр.,м/с)
 
Видим.   Явления Облачность Т
(С)
Тd
(С)
f
(%)
Тe
(С)
Тes
(С)
Комфортность P
(гПа)
Po
(гПа)
Тmin
(С)
Tmax
(С)
R
(мм)
R24
(мм)
S
(см)
18 16.06 З 2 30 км 8/8 1000 м
[Cb calv Ac trans]
+22.2 +17.4 74 +27 +27 душно 1007.8 984.2 +18.6 +26.0 0.5
21 16.06 З 3 25 км в посл. час ливневой дождь 10/10 600 м
[Cb calv]
+19.2 +16.6 85 +21 +21 комфорт 1009.6 985.7 +19.2 +22.5
00 17.06 штиль 0 25 км {ливн. осадки} 3/3 1000 м
[Cu med, cong]
+18.1 +16.1 88 +18 +18 1009.7 985.7 +18.1 +22.5 0.2
03 17.06 ЮЗ 2 28 км 6/1 1000 м
[Cu med, cong Ac trans Ci fib]
+17.0 +15.0 88 +17 +17 1010.3 986.2 +17.0 +22.5
06 17.06 Ю 3 30 км 8/0
[Ac trans]
+19.8 +14.7 72 +22 +25 комфорт 1010.8 986.9 +16.5 +22.5 0.2
09 17.06 Ю 2 30 км 8/3 1000 м
[Cu med, cong Ac trans]
+22.7 +15.4 63 +27 +34 душно 1009.8 986.2 +19.6 +23.0
12 17.06 В 5 30 км 8/8 600 м
[Cb calv]
+26.3 +13.3 45 +28 +30 жарко 1008.4 985.1 +19.6 +28.1
15 17.06 Ю 1 30 км слабый ливневой дождь 8/8 1000 м
[Cb calv]
+20.4 +18.0 86 +25 +26 комфорт 1009.8 986.0 +19.6 +28.2
18 17.06 З 3 30 км {ливн. осадки} 6/4 1000 м
[Cb calv Ac trans Ci fib]
+19.8 +16.5 81 +22 +22 комфорт 1009.2 985.4 +19.6 +28.2 2
21 17.06 З 2 30 км 4/3 1000 м
[Cu med, cong Ac trans]
+17.8 +16.8 94 +18 +18 1010.2 986.2 +17.4 +20.1
00 18.06 В 1 30 км 4/3 1000 м
[Cu med, cong Ac trans]
+17.4 +16.4 94 +18 +18 1010.5 986.4 +17.0 +20.1
03 18.06 штиль 0 30 км 5/0
[Ac trans Ci fib]
+16.4 +15.4 94 +16 +16 1010.2 986.1 +16.2 +20.1
06 18.06 В 1 30 км 8/6 1000 м
[Sc Ci fib]
+17.4 +15.7 90 +18 +21 1010.6 986.5 +16.0 +20.1
09 18.06 СЗ 2 25 км 6/4 600 м
[Cb calv Ac trans]
+24.4 +16.3 61 +28 +37 душно 1010.1 986.6 +17.4 +24.6
12 18.06 Ю 4 25 км гроза без осадков 8/6 600 м
[Cb calv Ac trans]
+27.4 +15.4 48 +30 +34 жарко 1009.2 985.9 +17.4 +29.4
15 18.06 Ю 3 30 км {гроза, ливн. осадки} 6/3 1000 м
[Cu med, cong Ac trans]
+25.6 +16.3 56 +29 +32 душно 1008.6 985.2 +17.4 +29.4
18 18.06 З 4 30 км слабый ливневой дождь {гроза} 9/9 1000 м
[Cb calv]
+20.4 +19.1 92 +24 +24 комфорт 1010.6 986.8 +17.4 +29.6 3
21 18.06 СЗ 4 30 км 9/9 1000 м
[Cb calv]
+19.4 +16.6 84 +21 +21 комфорт 1012.5 988.6 +19.3 +20.7
00 19.06 В 2 30 км 6/0
[Ac trans]
+19.3 +16.3 83 +22 +22 комфорт 1012.7 988.7 +18.5 +20.7
03 19.06 СВ 2 30 км 8/6 600 м
[Sc Ac trans]
+19.0 +15.5 80 +21 +21 комфорт 1013.5 989.5 +18.5 +20.7
06 19.06 ЮВ 1 30 км 9/8 1000 м
[Sc Ac trans]
+19.0 +17.4 90 +22 +23 комфорт 1014.6 990.6 +18.4 +20.7
09 19.06 З 2 30 км 8/4 1000 м
[Sc Ac trans]
+22.1 +16.7 71 +26 +33 душно 1014.9 991.1 +19.0 +22.3
12 19.06 ЮЗ 2 28 км 8/5 1000 м
[Cu med, cong Ac trans Ci fib]
+26.2 +16.8 56 +30 +36 душно 1013.3 989.9 +19.0 +27.6
15 19.06 В 2 30 км 9/8 1000 м
[Cb calv Ac trans]
+27.6 +13.1 41 +29 +30 жарко 1012.1 988.8 +19.0 +28.4
18 19.06 СЗ 1 28 км 9/8 1000 м
[Sc Ci fib]
+24.3 +16.5 62 +28 +28 душно 1014.4 990.8 +19.0 +28.4
21 19.06 З 2 30 км {ливн. осадки} 8/3 1000 м
[Cu med, cong Ac trans]
+19.9 +18.0 89 +23 +23 комфорт 1016.7 992.7 +19.8 +24.6
00 20.06 С 2 25 км {ливн. осадки} ясно +18.4 +16.8 90 +20 +20 1017.5 993.4 +18.4 +24.6 1
03 20.06 штиль 0 25 км 1/1 1000 м
[Cu med, cong]
+16.6 +14.9 90 +16 +16 1018.1 993.8 +16.5 +24.6
06 20.06 ЮВ 1 30 км 3/1 1000 м
[Cu med, cong Ac lent Ci fib]
+19.6 +15.9 79 +23 +29 комфорт 1019.1 995.0 +16.1 +24.6 1
09 20.06 З 2 30 км 3/1 1000 м
[Cu med, cong Ci fib]
+26.6 +15.5 51 +30 +45 душно 1017.2 993.7 +19.6 +27.0
12 20.06 ЮЗ 2 30 км 4/3 1500 м
[Cu med, cong Ci sp]
+30.8 +14.3 37 +33 +45 душно 1015.3 992.2 +19.6 +31.1
15 20.06 З 1 30 км 5/3 1500 м
[Cu med, cong Ac trans Ci sp]
+31.4 +12.2 31 +32 +36 жарко 1014.4 991.3 +19.6 +32.3
18 20.06 В 2 30 км 4/1 1500 м
[Cu med, cong Ac trans Ci fib]
+26.9 +14.1 45 +29 +29 жарко 1015.1 991.7 +19.6 +32.3
21 20.06 СЗ 2 30 км 8/1 1500 м
[Cu med, cong Ac trans Ci fib]
+22.8 +13.2 55 +26 +26 жарко 1017.3 993.5 +22.6 +27.2
00 21.06 С 1 30 км 4/1 1500 м
[Cu med, cong Ac trans Ci sp]
+19.7 +12.9 65 +22 +22 комфорт 1017.4 993.3 +19.4 +27.2
03 21.06 З 1 30 км 6/1 1500 м
[Cu med, cong Ac trans Ci fib]
+18.0 +13.8 76 +19 +19 1017.2 993.0 +17.8 +27.2
06 21.06 З 2 30 км 6/1 1500 м
[Cu med, cong Ci fib]
+21.6 +15.4 68 +25 +30 комфорт 1017.1 993.2 +17.5 +27.2
09 21.06 З 2 30 км 5/3 1500 м
[Cu med, cong Ac cuf Ci sp]
+28.0 +14.9 45 +31 +41 душно 1014.8 991.5 +21.6 +28.3
12 21.06 Ю 3 30 км 8/4 1500 м
[Cb calv Ac cuf Ci sp]
+30.4 +14.2 37 +32 +38 жарко 1012.5 989.4 +21.6 +31.2
15 21.06 ЮВ 1 27 км гроза, ливневой дождь 9/9 1000 м
[Cb cap]
+21.6 +18.9 85 +26 +27 душно 1014.0 990.2 +21.0 +32.0
18 21.06 В 1 30 км {гроза, ливн. осадки} 8/8 1000 м
[Cb calv Ci sp]
+20.1 +17.5 85 +24 +24 комфорт 1015.1 991.2 +19.4 +32.0 23
21 21.06 СЗ 1 24 км 6/0
[Ac trans]
+19.0 +17.9 93 +22 +22 комфорт 1015.2 991.2 +19.0 +20.4
00 22.06 штиль 0 24 км 8/0
[Ac trans]
+18.3 +17.3 94 +19 +19 1014.0 989.9 +18.3 +20.4
03 22.06 З 1 28 км 6/0
[Ac trans Ci fib]
+16.8 +15.6 93 +18 +18 1013.6 989.4 +16.6 +20.4
06 22.06 З 1 25 км ясно +20.2 +16.2 78 +24 +32 комфорт 1013.4 989.5 +16.4 +20.4
09 22.06 Ю 2 28 км 4/3 1000 м
[Cu med, cong Ci fib]
+25.6 +16.6 58 +29 +42 душно 1011.2 987.8 +20.2 +25.9
12 22.06 СЗ 4 28 км 8/6 1000 м
[Cb cap Ci fib]
+26.2 +15.5 52 +29 +34 жарко 1009.4 986.1 +20.2 +30.0
15 22.06 З 5 30 км {гроза} 8/4 1000 м
[Cb cap Ac trans Ci fib]
+28.9 +14.3 41 +31 +32 жарко 1007.7 984.6 +20.2 +30.0
18 22.06 З 4 30 км в посл. час гроза {ливн. осадки} 8/5 1000 м
[Cu Sc Ac trans Ci fib]
+20.8 +17.6 82 +25 +25 комфорт 1009.6 985.8 +20.2 +30.0 4
21 22.06 СЗ 3 30 км 8/4 1000 м
[Cu Sc Ac trans]
+20.6 +17.0 80 +24 +24 комфорт 1010.9 987.1 +20.4 +21.3
00 23.06 СВ 2 25 км 6/0
[Ac trans]
+20.0 +15.5 75 +23 +23 комфорт 1011.6 987.7 +20.0 +21.3
03 23.06 З 7 10 км {ливн. осадки} 4/3 600 м
[Cu med, cong Ac trans]
+16.3 +11.1 71 +15 +15 1013.3 989.0 +16.2 +21.3
06 23.06 З 9
{17}
10 км {ливн. осадки} 8/6 600 м
[Cu Sc Ac trans]
+16.8 +8.2 57 +15 +16 1015.7 991.4 +16.0 +21.3 0.8
09 23.06 З 10
{18}
18 км 10/8 600 м
[Cu Sc Ac trans]
+15.8 +6.4 54 +14 +14 1016.7 992.3 +15.8 +18.2
12 23.06 З 3 25 км 9/8 1000 м
[Cu Sc Ac trans]
+18.0 +6.4 47 +18 +20 1016.0 991.8 +15.8 +18.2
15 23.06 З 2 30 км 3/1 1000 м
[Cu hum Ac trans Ci fib]
+23.2 +8.2 38 +24 +29 комфорт 1014.9 991.1 +15.8 +23.4

 

Местоположение метеостанции Sandanski (Болгария): широта 41.52 долгота 23.27 высота над уровнем моря 207 м.

В архиве по умолчанию представлена погода в Sandanski за последнюю неделю. Архивные данные за месяц целиком и за предыдущие месяцы, начиная с января 2011 года, Вы можете получить, выбрав интересующий диапазон дат из раскрывающегося списка и нажав кнопку "Ввод!".


*Определитесь, кто Вы:
робот инопланетянин человек

Внимание! Время в таблицах - всемирное. Для получения местного времени необходимо прибавить поправку, которая в Sandanski равна 2 ч.

Смотрите также архив погоды в соседних городах и на ближайших метеорологических станциях:

Погода в Berovo (Македония) (41 км)
Погода в Strumica (Македония) (53 км)
Погода в Serrai (Греция) (56 км)
Погода в Vinica (Македония) (75 км)
Погода в Gevgelija (Македония) (76 км)
Погода в Mussala (Болгария) (78 км)
Погода в Demir Kapija (Македония) (86 км)
Погода в Stip (Македония) (94 км)
Погода в Kriva Palanka (Македония) (109 км)
Погода в Thessaloniki (Греция) (114 км)

Пояснения к столбцам:

Ветер - указаны скорость ветра в м/с - средняя за 10 мин, порывы в срок и между сроками (в фигурных скобках) и направление, откуда дует ветер: С - северный, СВ - северо-восточный, В - восточный, ЮВ - юго-восточный, Ю - южный, ЮЗ - юго-западный, З - западный, СЗ - северо-западный.
Видимость - горизонтальная дальность видимости в метрах или километрах. При видимости от 1 до 10 км при отсутствии осадков обычно наблюдается дымка, при ухудшении видимости до 1 км и менее - туман. В сухую погоду видимость может ухудшаться дымом, пылью или мглою.
Явления - указаны атмосферные явления, наблюдавшиеся в срок или в последний час перед сроком; фигурными скобками обозначены явления, наблюдавшиеся между сроками (за 1-3 часа до срока); квадратными скобками обозначены град или гололедные отложения с указанием их диаметра в мм.
Облачность - указаны через наклонную черту общая и нижняя облачность в баллах и высота нижней границы облаков в метрах; квадратными скобками обозначены формы облаков: Ci - перистые, Cs - перисто-слоистые, Cc - перисто-кучевые, Ac - высококучевые, As - высокослоистые, Sc - слоисто-кучевые, Ns - слоисто-дождевые, Cu - кучевые, Cb - кучево-дождевые. Подробнее классификацию облаков см. в Атласе облаков (PDF).
T - Температура воздуха - температура, измеренная на высоте 2 м над землей.
Td - Температура точки росы - температура, при понижении до которой содержащийся в воздухе водяной пар достигнет насыщения.
f - Относительная влажность воздуха - влажноcть воздуха, измеренная на высоте 2 м над землей.
Te - Эффективная температура - температура, которую ощущает одетый по сезону человек в тени. Характеристика душности погоды. При расчете учитывается влияние влажности воздуха и скорости ветра на теплоощущения человека.
Tes - Эффективная температура на солнце - температура, которую ощущает человек, с поправкой на солнечный нагрев. Характеристика знойности погоды. Зависит от высоты солнца над горизонтом, облачности и скорости ветра. Ночью, в пасмурную погоду, а также при ветре 12 м/с и более поправка равна нулю.
P - Атмосферное давление - приведенное к уровню моря атмосферное давление.
Po - Атмосферное давление - измеренное на уровне метеостанции атмосферное давление.
Tmin - Минимальная температура - минимум температуры воздуха на высоте 2 м над землей.
Tmax - Максимальная температура - максимум температуры воздуха на высоте 2 м над землей.
R - Количество осадков - Количество выпавших осадков за период времени, мм. При наведении курсора мыши на число - период времени, за который выпало указанное количество осадков.
R24 - Количество осадков - Количество выпавших осадков за 24 часа, мм.
S - Снежный покров - Высота снежного покрова, см. При наведении курсора мыши на число - состояние снежного покрова и степень покрытия местности в баллах.